STARLINK-1493, 45759

Orbit data source: Space-Track

STARLINK-1493, 45759 is a payload satellite owned by SpaceX/Seattle (US) in LEO that was launched on Sat, 13 Jun 2020 UTC via an FALCON 9 launch vehicle from the Air Force Eastern Test Range (AFETR). Payloads include a variety of satellites, spacecraft, and rockets equipped with specific instruments for various scientific and technological missions. These include communications satellites like Starlink; space stations such as the ISS; scientific satellites like the Hubble; Earth observation satellites from companies like Planet Labs, Umbra, and HawkEye 360; GPS; miniature CubeSats for education and research; and military/defense satellites.

Loading next visibility...
STARLINK-1493 details
Identifier
45759, 2020-038AF
Orbit
LEO
Last TLE update7 hours ago
Origin
Flag of USSpaceX/Seattle (US)
ManufacturerSpaceX/Seattle
MissionOperational Commercial Communications
Bus & MotorSTARLINK, Unknown motor
Mass260 kg wet, ~248 kg dry
Launch date (UTC)
2020-06-13 (4 years ago)
Launch vehicle
FALCON 9
Launch site
Air Force Eastern Test Range (AFETR)
Object type
Payload
Rocket body
Debris
Shape & HBRBox + 1 Pan, 8.86 m
Radar Cross Section13.562 m², Large (>1 m²)

Expand to show TLE details & history

TLE from 7 hours ago
0 STARLINK-1493
1 45759U 20038AF  24340.13558136  .00004288  00000-0  30645-3 0  9991
2 45759  53.0568 119.6368 0000890  73.4061 286.7026 15.06413371248131
Epoch: 2024-12-05T03:15Z
Definitive object data (Epoch: 2024-12-05T03:15:14.229Z)
Latitude-0°
Longitude-3.59321°
Altitude547.873 km
Speed7.589 km/s
True Right ascension07h 58m 32s
True Declination0° 00' 00"
Sunlit
Object was in full shadow at TLE epoch
Visualization TLE readout
Latitude35.71646°
Longitude142.57556°
Altitude549.553 km
Speed7.592 km/s
Apparent Right ascension18h 51m 49s
Apparent Declination0° 16' 17"
Sunlit
Object is in daylight
Visualization observer readout
Local Sidereal Time08:11:04
Azimuth29.46° NE
Elevation-46.437°
Doppler factor1
Orbital elements
Apogee altitude548.057 km
Perigee altitude546.825 km
Semi-major axis6,925.578 km
Eccentricity0.000089
Inclination53.0568°
RAAN119.6368°
Arg. of periapsis73.4061°
True anomaly286.69283°
Mean anomaly286.7026°
Eccentric anomaly286.69772°
Mean motion3.76582 °/min
BSTAR0.00030645
Orbital period95.6 mins
Loading maneuver chart data...
Loading historical data...
Loading historical data...
Loading historical data...
Loading historical data...
Loading historical data...
Loading historical data...
Loading historical data...

STARLINK-1493 Visibility forecast

Observer location: undefined°, undefined

Span
Click to sort rows by Start time (UTC) header in descending order
Start Az.
Max El. time (UTC)
Max El. Az.
Max El.
End time (UTC)
End Az.
6 mins2024-12-05 11:21:43.277Z181.874° SSW2024-12-05 11:24:43.277Z130.271° SE22.578°2024-12-05 11:27:43.277Z77.755° E
6 mins2024-12-05 13:01:43.277Z260.807° W2024-12-05 13:03:43.277Z308.844° NW35.735°2024-12-05 13:07:43.277Z39.86° NE
5 mins2024-12-05 18:03:43.277Z339.733° N2024-12-05 18:05:43.277Z24.097° NE27.007°2024-12-05 18:08:43.277Z85.439° E
6 mins2024-12-05 19:42:43.277Z292.195° WNW2024-12-05 19:45:43.277Z215.106° SW34.892°2024-12-05 19:48:43.277Z156.646° SSE
|